Notices

What's New in latest Release from April 7th, 2021:

- Updated Glossary, including Speed of Maximum Gust, and Total Hourly Precipitation

- Updated national and regional climate services offices contacts and prices information

- Addition of station inventory lists for 1981-2010, 1971-2000, and 1961-1990 Normals.

If you haven't already, please take our survey and provide feedback about our website: https://eccc.sondage-survey.ca/f/LanguageSelection.aspx?s=442ca660-fcf1-47c0-95a9-59707d6fd709

Hourly Data Report for January 28, 2021

SHEARWATER RCS
NOVA SCOTIA
Current Station Operator: ECCC - MSC

44°37'47.000" N
63°30'48.000" W
24.00 m
8205092
71264
AAW

Download Data

Hourly Data (January 2021)
Hourly Data Report for January 28, 2021
TIME
LST
Temp Definition
°C
Dew Point Definition
°C
Rel Hum Definition
%
Precip. Amount Definition
mm

Wind Dir Definition
10's deg

Wind Spd Definition
km/h
Visibility Definition
km
Stn Press Definition
kPa
Hmdx Definition


Wind Chill Definition


Weather Definition


00:00 -2.8 -6.3 77 0.0 33 8   101.28   -6 LegendNANA
01:00 -3.0 -6.3 78 0.0 33 12   101.25   -7 LegendNANA
02:00 -3.1 -6.3 79 0.0 31 9   101.27   -7 LegendNANA
03:00 -4.0 -6.9 81 0.0 1 4   101.25   -6 LegendNANA
04:00 -5.4 -7.4 86 0.0 0 1   101.25   -6 LegendNANA
05:00 -4.3 -6.1 87 0.0 27 4   101.23   -6 LegendNANA
06:00 -4.0 -6.4 84 0.0 28 1   101.19   -4 LegendNANA
07:00 -3.5 -5.6 85 0.0 26 5   101.16   -6 LegendNANA
08:00 -2.9 -5.2 84 0.0 28 3   101.13   -4 LegendNANA
09:00 -2.3 -4.8 83 0.0 25 5   101.09   -4 LegendNANA
10:00 -1.1 -4.8 76 0.0 31 7   101.03   -4 LegendNANA
11:00 -0.2 -4.2 74 0.0 29 7   101.02   -3 LegendNANA
12:00 0.7 -3.9 72 0.0 25 4   100.97     LegendNANA
13:00 1.1 -3.8 70 0.0 29 6   100.89     LegendNANA
14:00 1.3 -4.3 66 0.0 35 8   100.81     LegendNANA
15:00 1.1 -4.9 64 0.0 35 7   100.83     LegendNANA
16:00 0.8 -4.8 66 0.0 2 8   100.85     LegendNANA
17:00 0.1 -5.1 68 0.0 2 10   100.83     LegendNANA
18:00 -1.2 -5.9 70 0.0 2 10   100.75   -5 LegendNANA
19:00 -1.7 -5.9 73 0.0 3 8   100.75   -5 LegendNANA
20:00 -2.3 -6.2 75 0.0 2 10   100.72   -6 LegendNANA
21:00 -3.3 -6.8 77 0.0 4 9   100.72   -7 LegendNANA
22:00 -3.9 -7.7 75 0.0 4 9   100.68   -8 LegendNANA
23:00 -3.3 -7.5 73 0.0 2 12   100.62   -8 LegendNANA

Notes on Data Quality.

Legend

  • E = Estimated
  • M = Missing
  • NA = Not Available*
  • [empty] = Indicates an unobserved value
Date modified: